Regional Weather Roundup
Issued by NWS

Home | Current Version | Previous Version | Graphics & Text | Print | Product List | Glossary On
Versions: 1 2 3 4 5 6 7 8 9 10 11 12 13 14 15 16 17 18 19 20 21 22 23 24 25 26 27 28 29 30 31 32 33 34 35 36 37 38 39 40 41 42 43 44 45 46 47 48 49 50
000
ASUS43 KOAX 151010
RWRNE

WEATHER ROUNDUP FOR NEBRASKA
NATIONAL WEATHER SERVICE OMAHA NE
400 AM CST FRI DEC 15 2017

NOTES: SATELLITE DATA IS BEING USED TO AUGMENT CLOUD COVER ABOVE
       12000 FEET.
       "FAIR" INDICATES FEW OR NO CLOUDS BELOW 12,000 FEET WITH NO
       SIGNIFICANT WEATHER AND/OR OBSTRUCTIONS TO VISIBILITY.


NEZ001>004-019>022-054>056-151100-
NEBRASKA PANHANDLE

CITY           SKY/WX    TMP DP  RH WIND       PRES   REMARKS
SCOTTSBLUFF    CLOUDY    12   9  87 NW7       30.07F WCI   1
ALLIANCE       CLOUDY     7   4  87 W9        30.03F WCI  -7
CHADRON        CLOUDY    14  10  84 W8        30.03F WCI   3
GORDON         FAIR      19  15  82 SW9       30.00F WCI   9
KIMBALL        CLOUDY    19  13  77 SW12      30.07F WCI   6
SIDNEY         CLOUDY    17  12  80 W9        30.08F WCI   6
$$

NEZ057>060-069>072-079>082-151100-
SOUTHWEST NEBRASKA

CITY           SKY/WX    TMP DP  RH WIND       PRES   REMARKS
NORTH PLATTE   CLOUDY    14  12  92 W5        30.12F WCI   6
IMPERIAL       CLOUDY    17  14  88 W9        30.14F WCI   6
LEXINGTON      CLOUDY    19  15  88 NW3       30.14F
MCCOOK         CLOUDY    17  15  92 SW9       30.17S WCI   6
OGALLALA       CLOUDY    17  14  86 W9        30.11F WCI   6
$$

NEZ005>010-023>029-035>040-094-151100-
NORTH CENTRAL NEBRASKA

CITY           SKY/WX    TMP DP  RH WIND       PRES   REMARKS
VALENTINE      PTCLDY    26  20  77 W9        30.02F WCI  17
AINSWORTH      CLEAR     26  23  88 W10       30.03F WCI  16
BROKEN BOW     CLEAR     24  19  81 W8        30.09F WCI  15
O`NEILL        CLEAR     28  26  94 W10       30.04F WCI  18
ORD            CLEAR     26  22  84 W12       30.08F WCI  16
THEDFORD       CLEAR     22  18  86 W5        30.07F WCI  15
$$

NEZ041-046>049-061>064-073>077-083>087-151100-
SOUTH CENTRAL NEBRASKA

CITY           SKY/WX    TMP DP  RH WIND       PRES   REMARKS
GRAND ISLAND   CLEAR     26  23  88 W12       30.14S WCI  16
AURORA         CLEAR     25  21  86 W10       30.13R WCI  15
HASTINGS       CLEAR     25  20  81 W9        30.15S WCI  15
HEBRON         PTCLDY    27  23  85 W3        30.17S
HOLDREGE       CLEAR     24  22  94 W8        30.15S WCI  14
KEARNEY        CLEAR     28  22  78 W8        30.15S WCI  20
YORK           PTCLDY    25  25 100 CALM      30.12F
$$

NEZ011>018-030>034-042>045-151100-
NORTHEAST NEBRASKA

CITY           SKY/WX    TMP DP  RH WIND       PRES   REMARKS
NORFOLK        CLOUDY    30  24  78 SW10      30.06F WCI  21
ALBION         CLOUDY    31  26  80 W6        30.08F WCI  25
BLAIR          CLOUDY    32  28  83 W7        30.09S WCI  26
COLUMBUS       CLOUDY    31  26  82 W9        30.11F WCI  23
FREMONT        CLOUDY    33  27  76 W6        30.10F WCI  28
TEKAMAH        CLOUDY    33  24  69 W12       30.08F WCI  24
WAYNE          CLOUDY    33  25  72 W10G17    30.04F WCI  25
$$

NEZ050>053-065>068-078-088>093-151100-
SOUTHEAST NEBRASKA

CITY           SKY/WX    TMP DP  RH WIND       PRES   REMARKS
LINCOLN        CLOUDY    33  27  78 W9        30.14F WCI  25
OMAHA EPPLEY   CLOUDY    33  24  69 SW5       30.10F WCI  29
BEATRICE       CLOUDY    29  28  92 W6        30.15S WCI  23
FALLS CITY     CLOUDY    35  26  69 NW10      30.14S WCI  27
NEBRASKA CITY  CLOUDY    32  28  84 W6        30.12F WCI  26
PLATTSMOUTH    CLOUDY    32  27  80 CALM      30.11S
$$

NEZ044-045-051>053-067-151100-
OMAHA AREA

CITY           SKY/WX    TMP DP  RH WIND       PRES   REMARKS
OMAHA EPPLEY   CLOUDY    33  24  69 SW5       30.10F WCI  29
BLAIR          CLOUDY    32  28  83 W7        30.09S WCI  26
FREMONT        CLOUDY    33  27  76 W6        30.10F WCI  28
MILLARD        CLOUDY    35  28  76 W5        30.11F WCI  31
OFFUTT AFB     CLOUDY    32  25  75 SW5       30.10F WCI  28
PLATTSMOUTH    CLOUDY    32  27  80 CALM      30.11S
WAHOO          CLOUDY    33  27  77 W9        30.11F WCI  25
$$




USA.gov is the U.S. government's official web portal to all federal, state and local government web resources and services.